TimePDT,TemperatureF,Dew PointF,Humidity,Sea Level PressureIn,VisibilityMPH,Wind Direction,Wind SpeedMPH,Gust SpeedMPH,PrecipitationIn,Events,Conditions,WindDirDegrees,DateUTC
12:55 AM,63.0,53.1,70,29.60,10.0,Calm,Calm,-,N/A,,Overcast,0,2013-06-24 07:55:00
1:55 AM,61.0,53.1,75,29.59,10.0,Calm,Calm,-,N/A,,Clear,0,2013-06-24 08:55:00
2:55 AM,62.1,53.1,72,29.58,10.0,Calm,Calm,-,N/A,,Overcast,0,2013-06-24 09:55:00
3:55 AM,60.1,54.0,80,29.58,10.0,Calm,Calm,-,N/A,,Mostly Cloudy,0,2013-06-24 10:55:00
4:55 AM,59.0,54.0,83,29.58,10.0,Calm,Calm,-,N/A,,Mostly Cloudy,0,2013-06-24 11:55:00
5:55 AM,59.0,54.0,83,29.58,10.0,East,4.6,-,N/A,,Scattered Clouds,90,2013-06-24 12:55:00
6:55 AM,60.1,54.0,80,29.58,10.0,Calm,Calm,-,N/A,,Partly Cloudy,0,2013-06-24 13:55:00
7:55 AM,61.0,54.0,78,29.58,10.0,ENE,4.6,-,N/A,,Overcast,60,2013-06-24 14:55:00
8:09 AM,60.8,53.6,77,29.60,10.0,ESE,4.6,-,N/A,,Overcast,120,2013-06-24 15:09:00
8:55 AM,61.0,55.0,81,29.59,10.0,East,5.8,-,0.00,Rain,Light Rain,100,2013-06-24 15:55:00
9:55 AM,63.0,54.0,72,29.59,10.0,Calm,Calm,-,0.00,,Overcast,0,2013-06-24 16:55:00
10:55 AM,63.0,55.0,75,29.60,9.0,Calm,Calm,-,0.01,Rain,Light Rain,0,2013-06-24 17:55:00
11:55 AM,64.0,54.0,70,29.60,10.0,SSE,3.5,-,0.01,Rain,Light Rain,160,2013-06-24 18:55:00
12:55 PM,64.0,55.9,75,29.60,10.0,North,-9999.0,-,0.05,Rain,Light Rain,0,2013-06-24 19:55:00
1:55 PM,66.0,54.0,65,29.59,10.0,Calm,Calm,-,0.00,,Overcast,0,2013-06-24 20:55:00
2:55 PM,63.0,55.9,78,29.61,9.0,WNW,5.8,-,0.06,Rain,Light Rain,300,2013-06-24 21:55:00
3:03 PM,62.6,55.4,77,29.63,1.8,West,3.5,-,0.04,Rain,Rain,260,2013-06-24 22:03:00
3:20 PM,62.6,55.4,77,29.63,2.0,Calm,Calm,-,0.10,Rain,Rain,0,2013-06-24 22:20:00
3:32 PM,60.8,55.4,82,29.63,6.0,Calm,Calm,-,0.12,Rain,Light Rain,0,2013-06-24 22:32:00
3:55 PM,62.1,57.0,84,29.62,10.0,Calm,Calm,-,0.12,,Overcast,0,2013-06-24 22:55:00
4:55 PM,63.0,57.0,81,29.62,10.0,Calm,Calm,-,0.01,Rain,Light Rain,0,2013-06-24 23:55:00
5:55 PM,63.0,55.9,78,29.62,10.0,West,5.8,-,0.00,,Mostly Cloudy,280,2013-06-25 00:55:00
6:55 PM,61.0,53.1,75,29.64,10.0,NNW,10.4,-,N/A,,Overcast,330,2013-06-25 01:55:00
7:55 PM,57.9,53.1,84,29.66,8.0,South,4.6,-,0.08,Rain,Light Rain,190,2013-06-25 02:55:00
8:55 PM,57.9,53.1,84,29.66,10.0,NE,3.5,-,0.03,,Overcast,40,2013-06-25 03:55:00
9:55 PM,57.9,54.0,87,29.68,10.0,Calm,Calm,-,N/A,,Overcast,0,2013-06-25 04:55:00
10:55 PM,57.0,52.0,83,29.68,10.0,Calm,Calm,-,N/A,,Scattered Clouds,0,2013-06-25 05:55:00
11:55 PM,55.0,50.0,83,29.69,10.0,Calm,Calm,-,N/A,,Clear,0,2013-06-25 06:55:00